Data supplied by UK-AIR on 5/4/2008
All Data GMT hour ending 
Status: R =Ratified P=Provisional,P*=As supplied
,,Cambridge Roadside,,,,,,,,,,,,,,,,,,,,,,,
Date,time,"Nitric oxide",status,unit,"Nitrogen dioxide",status,unit,"Nitrogen oxides as nitrogen dioxide",status,unit
 
01-01-2005,01:00,11,R,ugm-3,36,R,ugm-3,53,R,ugm-3
01-01-2005,02:00,28,R,ugm-3,48,R,ugm-3,90,R,ugm-3
01-01-2005,03:00,11,R,ugm-3,32,R,ugm-3,50,R,ugm-3
01-01-2005,04:00,11,R,ugm-3,34,R,ugm-3,52,R,ugm-3
01-01-2005,05:00,9,R,ugm-3,34,R,ugm-3,48,R,ugm-3
01-01-2005,06:00,3,R,ugm-3,23,R,ugm-3,27,R,ugm-3
01-01-2005,07:00,4,R,ugm-3,27,R,ugm-3,32,R,ugm-3
01-01-2005,08:00,8,R,ugm-3,25,R,ugm-3,36,R,ugm-3
01-01-2005,09:00,3,R,ugm-3,23,R,ugm-3,27,R,ugm-3
01-01-2005,10:00,5,R,ugm-3,21,R,ugm-3,29,R,ugm-3
01-01-2005,11:00,31,R,ugm-3,44,R,ugm-3,92,R,ugm-3
01-01-2005,12:00,9,R,ugm-3,19,R,ugm-3,32,R,ugm-3
01-01-2005,13:00,8,R,ugm-3,19,R,ugm-3,31,R,ugm-3
01-01-2005,14:00,9,R,ugm-3,21,R,ugm-3,34,R,ugm-3
01-01-2005,15:00,9,R,ugm-3,19,R,ugm-3,32,R,ugm-3
01-01-2005,16:00,8,R,ugm-3,19,R,ugm-3,31,R,ugm-3
01-01-2005,17:00,6,R,ugm-3,15,R,ugm-3,25,R,ugm-3
01-01-2005,18:00,5,R,ugm-3,15,R,ugm-3,23,R,ugm-3
01-01-2005,19:00,4,R,ugm-3,10,R,ugm-3,15,R,ugm-3
01-01-2005,20:00,4,R,ugm-3,13,R,ugm-3,19,R,ugm-3
01-01-2005,21:00,5,R,ugm-3,15,R,ugm-3,23,R,ugm-3
01-01-2005,22:00,6,R,ugm-3,15,R,ugm-3,25,R,ugm-3
01-01-2005,23:00,5,R,ugm-3,13,R,ugm-3,21,R,ugm-3
01-01-2005,24:00,4,R,ugm-3,11,R,ugm-3,17,R,ugm-3
02-01-2005,01:00,1,R,ugm-3,8,R,ugm-3,10,R,ugm-3
02-01-2005,02:00,1,R,ugm-3,10,R,ugm-3,11,R,ugm-3
02-01-2005,03:00,4,R,ugm-3,11,R,ugm-3,17,R,ugm-3
02-01-2005,04:00,1,R,ugm-3,11,R,ugm-3,13,R,ugm-3
02-01-2005,05:00,1,R,ugm-3,19,R,ugm-3,21,R,ugm-3
02-01-2005,06:00,1,R,ugm-3,19,R,ugm-3,21,R,ugm-3
02-01-2005,07:00,5,R,ugm-3,23,R,ugm-3,31,R,ugm-3
02-01-2005,08:00,5,R,ugm-3,23,R,ugm-3,31,R,ugm-3
02-01-2005,09:00,3,R,ugm-3,15,R,ugm-3,19,R,ugm-3
02-01-2005,10:00,5,R,ugm-3,17,R,ugm-3,25,R,ugm-3
02-01-2005,11:00,13,R,ugm-3,27,R,ugm-3,46,R,ugm-3
02-01-2005,12:00,16,R,ugm-3,29,R,ugm-3,53,R,ugm-3
02-01-2005,13:00,18,R,ugm-3,29,R,ugm-3,55,R,ugm-3
02-01-2005,14:00,15,R,ugm-3,19,R,ugm-3,42,R,ugm-3
02-01-2005,15:00,21,R,ugm-3,29,R,ugm-3,61,R,ugm-3
02-01-2005,16:00,23,R,ugm-3,36,R,ugm-3,71,R,ugm-3
02-01-2005,17:00,38,R,ugm-3,48,R,ugm-3,105,R,ugm-3
02-01-2005,18:00,33,R,ugm-3,44,R,ugm-3,94,R,ugm-3
02-01-2005,19:00,21,R,ugm-3,36,R,ugm-3,69,R,ugm-3
02-01-2005,20:00,14,R,ugm-3,32,R,ugm-3,53,R,ugm-3
02-01-2005,21:00,15,R,ugm-3,34,R,ugm-3,57,R,ugm-3
02-01-2005,22:00,18,R,ugm-3,34,R,ugm-3,61,R,ugm-3
02-01-2005,23:00,16,R,ugm-3,34,R,ugm-3,59,R,ugm-3
02-01-2005,24:00,9,R,ugm-3,27,R,ugm-3,40,R,ugm-3
03-01-2005,01:00,8,R,ugm-3,25,R,ugm-3,36,R,ugm-3
03-01-2005,02:00,4,R,ugm-3,19,R,ugm-3,25,R,ugm-3
03-01-2005,03:00,1,R,ugm-3,11,R,ugm-3,13,R,ugm-3
03-01-2005,04:00,1,R,ugm-3,13,R,ugm-3,15,R,ugm-3
03-01-2005,05:00,1,R,ugm-3,15,R,ugm-3,17,R,ugm-3
03-01-2005,06:00,4,R,ugm-3,23,R,ugm-3,29,R,ugm-3
03-01-2005,07:00,6,R,ugm-3,19,R,ugm-3,29,R,ugm-3
03-01-2005,08:00,6,R,ugm-3,23,R,ugm-3,32,R,ugm-3
03-01-2005,09:00,15,R,ugm-3,21,R,ugm-3,44,R,ugm-3
03-01-2005,10:00,20,R,ugm-3,31,R,ugm-3,61,R,ugm-3
03-01-2005,11:00,26,R,ugm-3,34,R,ugm-3,74,R,ugm-3
03-01-2005,12:00,24,R,ugm-3,34,R,ugm-3,71,R,ugm-3
03-01-2005,13:00,33,R,ugm-3,42,R,ugm-3,92,R,ugm-3
03-01-2005,14:00,36,R,ugm-3,46,R,ugm-3,101,R,ugm-3
03-01-2005,15:00,36,R,ugm-3,40,R,ugm-3,96,R,ugm-3
03-01-2005,16:00,29,R,ugm-3,40,R,ugm-3,84,R,ugm-3
03-01-2005,17:00,29,R,ugm-3,40,R,ugm-3,84,R,ugm-3
03-01-2005,18:00,24,R,ugm-3,38,R,ugm-3,74,R,ugm-3
03-01-2005,19:00,18,R,ugm-3,31,R,ugm-3,57,R,ugm-3
03-01-2005,20:00,10,R,ugm-3,27,R,ugm-3,42,R,ugm-3
03-01-2005,21:00,10,R,ugm-3,25,R,ugm-3,40,R,ugm-3
03-01-2005,22:00,6,R,ugm-3,19,R,ugm-3,29,R,ugm-3
03-01-2005,23:00,8,R,ugm-3,19,R,ugm-3,31,R,ugm-3
03-01-2005,24:00,4,R,ugm-3,13,R,ugm-3,19,R,ugm-3
04-01-2005,01:00,1,R,ugm-3,11,R,ugm-3,13,R,ugm-3
04-01-2005,02:00,1,R,ugm-3,10,R,ugm-3,11,R,ugm-3
04-01-2005,03:00,1,R,ugm-3,8,R,ugm-3,10,R,ugm-3
04-01-2005,04:00,0,R,ugm-3,8,R,ugm-3,8,R,ugm-3
04-01-2005,05:00,0,R,ugm-3,6,R,ugm-3,6,R,ugm-3
04-01-2005,06:00,1,R,ugm-3,8,R,ugm-3,10,R,ugm-3
04-01-2005,07:00,5,R,ugm-3,13,R,ugm-3,21,R,ugm-3
04-01-2005,08:00,11,R,ugm-3,23,R,ugm-3,40,R,ugm-3
04-01-2005,09:00,44,R,ugm-3,34,R,ugm-3,101,R,ugm-3
04-01-2005,10:00,33,R,ugm-3,36,R,ugm-3,86,R,ugm-3
04-01-2005,11:00,30,R,ugm-3,38,R,ugm-3,84,R,ugm-3
04-01-2005,12:00,39,R,ugm-3,44,R,ugm-3,103,R,ugm-3
04-01-2005,13:00,51,R,ugm-3,52,R,ugm-3,130,R,ugm-3
04-01-2005,14:00,28,R,ugm-3,36,R,ugm-3,78,R,ugm-3
04-01-2005,15:00,41,R,ugm-3,44,R,ugm-3,107,R,ugm-3
04-01-2005,16:00,28,R,ugm-3,42,R,ugm-3,84,R,ugm-3
04-01-2005,17:00,59,R,ugm-3,59,R,ugm-3,149,R,ugm-3
04-01-2005,18:00,74,R,ugm-3,61,R,ugm-3,174,R,ugm-3
04-01-2005,19:00,75,R,ugm-3,67,R,ugm-3,181,R,ugm-3
04-01-2005,20:00,50,R,ugm-3,63,R,ugm-3,139,R,ugm-3
04-01-2005,21:00,29,R,ugm-3,48,R,ugm-3,92,R,ugm-3
04-01-2005,22:00,20,R,ugm-3,40,R,ugm-3,71,R,ugm-3
04-01-2005,23:00,18,R,ugm-3,40,R,ugm-3,67,R,ugm-3
04-01-2005,24:00,31,R,ugm-3,50,R,ugm-3,97,R,ugm-3
05-01-2005,01:00,5,R,ugm-3,31,R,ugm-3,38,R,ugm-3
05-01-2005,02:00,4,R,ugm-3,27,R,ugm-3,32,R,ugm-3
05-01-2005,03:00,5,R,ugm-3,27,R,ugm-3,34,R,ugm-3
05-01-2005,04:00,4,R,ugm-3,31,R,ugm-3,36,R,ugm-3
05-01-2005,05:00,1,R,ugm-3,23,R,ugm-3,25,R,ugm-3
05-01-2005,06:00,8,R,ugm-3,32,R,ugm-3,44,R,ugm-3
05-01-2005,07:00,34,R,ugm-3,53,R,ugm-3,105,R,ugm-3
05-01-2005,08:00,98,R,ugm-3,67,R,ugm-3,216,R,ugm-3
05-01-2005,09:00,134,R,ugm-3,78,R,ugm-3,283,R,ugm-3
05-01-2005,10:00,101,R,ugm-3,74,R,ugm-3,229,R,ugm-3
05-01-2005,11:00,88,R,ugm-3,67,R,ugm-3,201,R,ugm-3
05-01-2005,12:00,86,R,ugm-3,67,R,ugm-3,199,R,ugm-3
05-01-2005,13:00,73,R,ugm-3,69,R,ugm-3,180,R,ugm-3
05-01-2005,14:00,86,R,ugm-3,74,R,ugm-3,206,R,ugm-3
05-01-2005,15:00,95,R,ugm-3,78,R,ugm-3,223,R,ugm-3
05-01-2005,16:00,46,R,ugm-3,53,R,ugm-3,124,R,ugm-3
05-01-2005,17:00,55,R,ugm-3,53,R,ugm-3,138,R,ugm-3
05-01-2005,18:00,76,R,ugm-3,67,R,ugm-3,183,R,ugm-3
05-01-2005,19:00,41,R,ugm-3,55,R,ugm-3,118,R,ugm-3
05-01-2005,20:00,11,R,ugm-3,29,R,ugm-3,46,R,ugm-3
05-01-2005,21:00,10,R,ugm-3,27,R,ugm-3,42,R,ugm-3
05-01-2005,22:00,11,R,ugm-3,31,R,ugm-3,48,R,ugm-3
05-01-2005,23:00,15,R,ugm-3,36,R,ugm-3,59,R,ugm-3
05-01-2005,24:00,16,R,ugm-3,42,R,ugm-3,67,R,ugm-3
06-01-2005,01:00,6,R,ugm-3,31,R,ugm-3,40,R,ugm-3
06-01-2005,02:00,5,R,ugm-3,25,R,ugm-3,32,R,ugm-3
06-01-2005,03:00,6,R,ugm-3,32,R,ugm-3,42,R,ugm-3
06-01-2005,04:00,5,R,ugm-3,29,R,ugm-3,36,R,ugm-3
06-01-2005,05:00,3,R,ugm-3,21,R,ugm-3,25,R,ugm-3
06-01-2005,06:00,11,R,ugm-3,25,R,ugm-3,42,R,ugm-3
06-01-2005,07:00,24,R,ugm-3,44,R,ugm-3,80,R,ugm-3
06-01-2005,08:00,44,R,ugm-3,50,R,ugm-3,117,R,ugm-3
06-01-2005,09:00,84,R,ugm-3,59,R,ugm-3,187,R,ugm-3
06-01-2005,10:00,111,R,ugm-3,65,R,ugm-3,235,R,ugm-3
06-01-2005,11:00,109,R,ugm-3,71,R,ugm-3,237,R,ugm-3
06-01-2005,12:00,100,R,ugm-3,67,R,ugm-3,220,R,ugm-3
06-01-2005,13:00,88,R,ugm-3,63,R,ugm-3,197,R,ugm-3
06-01-2005,14:00,69,R,ugm-3,57,R,ugm-3,162,R,ugm-3
06-01-2005,15:00,65,R,ugm-3,59,R,ugm-3,159,R,ugm-3
06-01-2005,16:00,45,R,ugm-3,44,R,ugm-3,113,R,ugm-3
06-01-2005,17:00,54,R,ugm-3,55,R,ugm-3,138,R,ugm-3
06-01-2005,18:00,48,R,ugm-3,48,R,ugm-3,120,R,ugm-3
06-01-2005,19:00,43,R,ugm-3,50,R,ugm-3,115,R,ugm-3
06-01-2005,20:00,23,R,ugm-3,44,R,ugm-3,78,R,ugm-3
06-01-2005,21:00,15,R,ugm-3,31,R,ugm-3,53,R,ugm-3
06-01-2005,22:00,9,R,ugm-3,25,R,ugm-3,38,R,ugm-3
06-01-2005,23:00,9,R,ugm-3,17,R,ugm-3,31,R,ugm-3
06-01-2005,24:00,4,R,ugm-3,10,R,ugm-3,15,R,ugm-3
07-01-2005,01:00,3,R,ugm-3,6,R,ugm-3,10,R,ugm-3
07-01-2005,02:00,1,R,ugm-3,17,R,ugm-3,19,R,ugm-3
07-01-2005,03:00,1,R,ugm-3,27,R,ugm-3,29,R,ugm-3
07-01-2005,04:00,1,R,ugm-3,13,R,ugm-3,15,R,ugm-3
07-01-2005,05:00,0,R,ugm-3,15,R,ugm-3,15,R,ugm-3
07-01-2005,06:00,1,R,ugm-3,15,R,ugm-3,17,R,ugm-3
07-01-2005,07:00,8,R,ugm-3,21,R,ugm-3,32,R,ugm-3
07-01-2005,08:00,15,R,ugm-3,32,R,ugm-3,55,R,ugm-3
07-01-2005,09:00,28,R,ugm-3,31,R,ugm-3,73,R,ugm-3
07-01-2005,10:00,28,R,ugm-3,32,R,ugm-3,74,R,ugm-3
07-01-2005,11:00,40,R,ugm-3,40,R,ugm-3,101,R,ugm-3
07-01-2005,12:00,35,R,ugm-3,38,R,ugm-3,92,R,ugm-3
07-01-2005,13:00,35,R,ugm-3,38,R,ugm-3,92,R,ugm-3
07-01-2005,14:00,33,R,ugm-3,34,R,ugm-3,84,R,ugm-3
07-01-2005,15:00,26,R,ugm-3,27,R,ugm-3,67,R,ugm-3
07-01-2005,16:00,,,,,,,,,
07-01-2005,17:00,35,R,ugm-3,40,R,ugm-3,94,R,ugm-3
07-01-2005,18:00,55,R,ugm-3,50,R,ugm-3,134,R,ugm-3
07-01-2005,19:00,30,R,ugm-3,40,R,ugm-3,86,R,ugm-3
07-01-2005,20:00,46,R,ugm-3,46,R,ugm-3,117,R,ugm-3
07-01-2005,21:00,16,R,ugm-3,32,R,ugm-3,57,R,ugm-3
07-01-2005,22:00,11,R,ugm-3,25,R,ugm-3,42,R,ugm-3
07-01-2005,23:00,9,R,ugm-3,19,R,ugm-3,32,R,ugm-3
07-01-2005,24:00,8,R,ugm-3,15,R,ugm-3,27,R,ugm-3
08-01-2005,01:00,3,R,ugm-3,10,R,ugm-3,13,R,ugm-3
08-01-2005,02:00,1,R,ugm-3,15,R,ugm-3,17,R,ugm-3
08-01-2005,03:00,1,R,ugm-3,8,R,ugm-3,10,R,ugm-3
08-01-2005,04:00,1,R,ugm-3,6,R,ugm-3,8,R,ugm-3
08-01-2005,05:00,0,R,ugm-3,4,R,ugm-3,4,R,ugm-3
08-01-2005,06:00,0,R,ugm-3,4,R,ugm-3,4,R,ugm-3
08-01-2005,07:00,3,R,ugm-3,10,R,ugm-3,13,R,ugm-3
08-01-2005,08:00,6,R,ugm-3,10,R,ugm-3,19,R,ugm-3
08-01-2005,09:00,9,R,ugm-3,19,R,ugm-3,32,R,ugm-3
08-01-2005,10:00,16,R,ugm-3,23,R,ugm-3,48,R,ugm-3
08-01-2005,11:00,19,R,ugm-3,25,R,ugm-3,53,R,ugm-3
08-01-2005,12:00,18,R,ugm-3,25,R,ugm-3,52,R,ugm-3
08-01-2005,13:00,38,R,ugm-3,31,R,ugm-3,88,R,ugm-3
08-01-2005,14:00,30,R,ugm-3,31,R,ugm-3,76,R,ugm-3
08-01-2005,15:00,28,R,ugm-3,31,R,ugm-3,73,R,ugm-3
08-01-2005,16:00,46,R,ugm-3,40,R,ugm-3,111,R,ugm-3
08-01-2005,17:00,61,R,ugm-3,53,R,ugm-3,147,R,ugm-3
08-01-2005,18:00,55,R,ugm-3,53,R,ugm-3,138,R,ugm-3
08-01-2005,19:00,53,R,ugm-3,46,R,ugm-3,126,R,ugm-3
08-01-2005,20:00,25,R,ugm-3,38,R,ugm-3,76,R,ugm-3
08-01-2005,21:00,20,R,ugm-3,36,R,ugm-3,67,R,ugm-3
08-01-2005,22:00,21,R,ugm-3,40,R,ugm-3,73,R,ugm-3
08-01-2005,23:00,23,R,ugm-3,46,R,ugm-3,80,R,ugm-3
08-01-2005,24:00,15,R,ugm-3,23,R,ugm-3,46,R,ugm-3
09-01-2005,01:00,11,R,ugm-3,25,R,ugm-3,42,R,ugm-3
09-01-2005,02:00,10,R,ugm-3,19,R,ugm-3,34,R,ugm-3
09-01-2005,03:00,5,R,ugm-3,11,R,ugm-3,19,R,ugm-3
09-01-2005,04:00,1,R,ugm-3,8,R,ugm-3,10,R,ugm-3
09-01-2005,05:00,0,R,ugm-3,6,R,ugm-3,6,R,ugm-3
09-01-2005,06:00,0,R,ugm-3,8,R,ugm-3,8,R,ugm-3
09-01-2005,07:00,5,R,ugm-3,38,R,ugm-3,46,R,ugm-3
09-01-2005,08:00,3,R,ugm-3,21,R,ugm-3,25,R,ugm-3
09-01-2005,09:00,4,R,ugm-3,21,R,ugm-3,27,R,ugm-3
09-01-2005,10:00,6,R,ugm-3,17,R,ugm-3,27,R,ugm-3
09-01-2005,11:00,14,R,ugm-3,25,R,ugm-3,46,R,ugm-3
09-01-2005,12:00,15,R,ugm-3,32,R,ugm-3,55,R,ugm-3
09-01-2005,13:00,21,R,ugm-3,36,R,ugm-3,69,R,ugm-3
09-01-2005,14:00,21,R,ugm-3,34,R,ugm-3,67,R,ugm-3
09-01-2005,15:00,15,R,ugm-3,27,R,ugm-3,50,R,ugm-3
09-01-2005,16:00,14,R,ugm-3,25,R,ugm-3,46,R,ugm-3
09-01-2005,17:00,15,R,ugm-3,23,R,ugm-3,46,R,ugm-3
09-01-2005,18:00,14,R,ugm-3,27,R,ugm-3,48,R,ugm-3
09-01-2005,19:00,8,R,ugm-3,21,R,ugm-3,32,R,ugm-3
09-01-2005,20:00,9,R,ugm-3,19,R,ugm-3,32,R,ugm-3
09-01-2005,21:00,8,R,ugm-3,17,R,ugm-3,29,R,ugm-3
09-01-2005,22:00,6,R,ugm-3,13,R,ugm-3,23,R,ugm-3
09-01-2005,23:00,3,R,ugm-3,11,R,ugm-3,15,R,ugm-3
09-01-2005,24:00,3,R,ugm-3,10,R,ugm-3,13,R,ugm-3
10-01-2005,01:00,1,R,ugm-3,8,R,ugm-3,10,R,ugm-3
10-01-2005,02:00,1,R,ugm-3,6,R,ugm-3,8,R,ugm-3
10-01-2005,03:00,0,R,ugm-3,4,R,ugm-3,4,R,ugm-3
10-01-2005,04:00,0,R,ugm-3,4,R,ugm-3,4,R,ugm-3
10-01-2005,05:00,0,R,ugm-3,4,R,ugm-3,4,R,ugm-3
10-01-2005,06:00,1,R,ugm-3,10,R,ugm-3,11,R,ugm-3
10-01-2005,07:00,8,R,ugm-3,25,R,ugm-3,36,R,ugm-3
10-01-2005,08:00,11,R,ugm-3,25,R,ugm-3,42,R,ugm-3
10-01-2005,09:00,38,R,ugm-3,53,R,ugm-3,111,R,ugm-3
10-01-2005,10:00,38,R,ugm-3,53,R,ugm-3,111,R,ugm-3
10-01-2005,11:00,39,R,ugm-3,59,R,ugm-3,118,R,ugm-3
10-01-2005,12:00,40,R,ugm-3,53,R,ugm-3,115,R,ugm-3
10-01-2005,13:00,53,R,ugm-3,57,R,ugm-3,138,R,ugm-3
10-01-2005,14:00,54,R,ugm-3,63,R,ugm-3,145,R,ugm-3
10-01-2005,15:00,76,R,ugm-3,74,R,ugm-3,191,R,ugm-3
10-01-2005,16:00,113,R,ugm-3,80,R,ugm-3,252,R,ugm-3
10-01-2005,17:00,119,R,ugm-3,88,R,ugm-3,269,R,ugm-3
10-01-2005,18:00,105,R,ugm-3,78,R,ugm-3,239,R,ugm-3
10-01-2005,19:00,109,R,ugm-3,78,R,ugm-3,244,R,ugm-3
10-01-2005,20:00,49,R,ugm-3,69,R,ugm-3,143,R,ugm-3
10-01-2005,21:00,59,R,ugm-3,71,R,ugm-3,160,R,ugm-3
10-01-2005,22:00,34,R,ugm-3,59,R,ugm-3,111,R,ugm-3
10-01-2005,23:00,20,R,ugm-3,44,R,ugm-3,74,R,ugm-3
10-01-2005,24:00,15,R,ugm-3,34,R,ugm-3,57,R,ugm-3
11-01-2005,01:00,4,R,ugm-3,27,R,ugm-3,32,R,ugm-3
11-01-2005,02:00,9,R,ugm-3,46,R,ugm-3,59,R,ugm-3
11-01-2005,03:00,4,R,ugm-3,21,R,ugm-3,27,R,ugm-3
11-01-2005,04:00,1,R,ugm-3,15,R,ugm-3,17,R,ugm-3
11-01-2005,05:00,0,R,ugm-3,13,R,ugm-3,13,R,ugm-3
11-01-2005,06:00,4,R,ugm-3,19,R,ugm-3,25,R,ugm-3
11-01-2005,07:00,13,R,ugm-3,31,R,ugm-3,50,R,ugm-3
11-01-2005,08:00,30,R,ugm-3,46,R,ugm-3,92,R,ugm-3
11-01-2005,09:00,91,R,ugm-3,73,R,ugm-3,212,R,ugm-3
11-01-2005,10:00,71,R,ugm-3,74,R,ugm-3,183,R,ugm-3
11-01-2005,11:00,41,R,ugm-3,53,R,ugm-3,117,R,ugm-3
11-01-2005,12:00,49,R,ugm-3,53,R,ugm-3,128,R,ugm-3
11-01-2005,13:00,46,R,ugm-3,50,R,ugm-3,120,R,ugm-3
11-01-2005,14:00,30,R,ugm-3,38,R,ugm-3,84,R,ugm-3
11-01-2005,15:00,35,R,ugm-3,36,R,ugm-3,90,R,ugm-3
11-01-2005,16:00,34,R,ugm-3,38,R,ugm-3,90,R,ugm-3
11-01-2005,17:00,38,R,ugm-3,38,R,ugm-3,96,R,ugm-3
11-01-2005,18:00,26,R,ugm-3,31,R,ugm-3,71,R,ugm-3
11-01-2005,19:00,26,R,ugm-3,34,R,ugm-3,74,R,ugm-3
11-01-2005,20:00,10,R,ugm-3,31,R,ugm-3,46,R,ugm-3
11-01-2005,21:00,11,R,ugm-3,27,R,ugm-3,44,R,ugm-3
11-01-2005,22:00,13,R,ugm-3,23,R,ugm-3,42,R,ugm-3
11-01-2005,23:00,8,R,ugm-3,21,R,ugm-3,32,R,ugm-3
11-01-2005,24:00,9,R,ugm-3,21,R,ugm-3,34,R,ugm-3
12-01-2005,01:00,1,R,ugm-3,10,R,ugm-3,11,R,ugm-3
12-01-2005,02:00,1,R,ugm-3,10,R,ugm-3,11,R,ugm-3
12-01-2005,03:00,0,R,ugm-3,8,R,ugm-3,8,R,ugm-3
12-01-2005,04:00,0,R,ugm-3,8,R,ugm-3,8,R,ugm-3
12-01-2005,05:00,0,R,ugm-3,6,R,ugm-3,6,R,ugm-3
12-01-2005,06:00,5,R,ugm-3,11,R,ugm-3,19,R,ugm-3
12-01-2005,07:00,6,R,ugm-3,19,R,ugm-3,29,R,ugm-3
12-01-2005,08:00,23,R,ugm-3,36,R,ugm-3,71,R,ugm-3
12-01-2005,09:00,39,R,ugm-3,42,R,ugm-3,101,R,ugm-3
12-01-2005,10:00,35,R,ugm-3,40,R,ugm-3,94,R,ugm-3
12-01-2005,11:00,31,R,ugm-3,40,R,ugm-3,88,R,ugm-3
12-01-2005,12:00,34,R,ugm-3,42,R,ugm-3,94,R,ugm-3
12-01-2005,13:00,29,R,ugm-3,40,R,ugm-3,84,R,ugm-3
12-01-2005,14:00,33,R,ugm-3,38,R,ugm-3,88,R,ugm-3
12-01-2005,15:00,39,R,ugm-3,42,R,ugm-3,101,R,ugm-3
12-01-2005,16:00,49,R,ugm-3,50,R,ugm-3,124,R,ugm-3
12-01-2005,17:00,74,R,ugm-3,65,R,ugm-3,178,R,ugm-3
12-01-2005,18:00,68,R,ugm-3,63,R,ugm-3,166,R,ugm-3
12-01-2005,19:00,54,R,ugm-3,53,R,ugm-3,136,R,ugm-3
12-01-2005,20:00,26,R,ugm-3,42,R,ugm-3,82,R,ugm-3
12-01-2005,21:00,20,R,ugm-3,34,R,ugm-3,65,R,ugm-3
12-01-2005,22:00,18,R,ugm-3,36,R,ugm-3,63,R,ugm-3
12-01-2005,23:00,16,R,ugm-3,36,R,ugm-3,61,R,ugm-3
12-01-2005,24:00,18,R,ugm-3,32,R,ugm-3,59,R,ugm-3
13-01-2005,01:00,5,R,ugm-3,21,R,ugm-3,29,R,ugm-3
13-01-2005,02:00,1,R,ugm-3,17,R,ugm-3,19,R,ugm-3
13-01-2005,03:00,3,R,ugm-3,13,R,ugm-3,17,R,ugm-3
13-01-2005,04:00,1,R,ugm-3,13,R,ugm-3,15,R,ugm-3
13-01-2005,05:00,3,R,ugm-3,17,R,ugm-3,21,R,ugm-3
13-01-2005,06:00,4,R,ugm-3,19,R,ugm-3,25,R,ugm-3
13-01-2005,07:00,20,R,ugm-3,46,R,ugm-3,76,R,ugm-3
13-01-2005,08:00,48,R,ugm-3,61,R,ugm-3,134,R,ugm-3
13-01-2005,09:00,81,R,ugm-3,65,R,ugm-3,189,R,ugm-3
13-01-2005,10:00,86,R,ugm-3,71,R,ugm-3,202,R,ugm-3
13-01-2005,11:00,100,R,ugm-3,71,R,ugm-3,223,R,ugm-3
13-01-2005,12:00,80,R,ugm-3,67,R,ugm-3,189,R,ugm-3
13-01-2005,13:00,60,R,ugm-3,57,R,ugm-3,149,R,ugm-3
13-01-2005,14:00,74,R,ugm-3,57,R,ugm-3,170,R,ugm-3
13-01-2005,15:00,88,R,ugm-3,67,R,ugm-3,201,R,ugm-3
13-01-2005,16:00,141,R,ugm-3,80,R,ugm-3,296,R,ugm-3
13-01-2005,17:00,210,R,ugm-3,88,R,ugm-3,409,R,ugm-3
13-01-2005,18:00,228,R,ugm-3,96,R,ugm-3,443,R,ugm-3
13-01-2005,19:00,160,R,ugm-3,76,R,ugm-3,321,R,ugm-3
13-01-2005,20:00,113,R,ugm-3,74,R,ugm-3,246,R,ugm-3
13-01-2005,21:00,88,R,ugm-3,71,R,ugm-3,204,R,ugm-3
13-01-2005,22:00,101,R,ugm-3,73,R,ugm-3,227,R,ugm-3
13-01-2005,23:00,89,R,ugm-3,73,R,ugm-3,208,R,ugm-3
13-01-2005,24:00,78,R,ugm-3,65,R,ugm-3,183,R,ugm-3
14-01-2005,01:00,31,R,ugm-3,59,R,ugm-3,107,R,ugm-3
14-01-2005,02:00,31,R,ugm-3,65,R,ugm-3,113,R,ugm-3
14-01-2005,03:00,43,R,ugm-3,65,R,ugm-3,130,R,ugm-3
14-01-2005,04:00,66,R,ugm-3,73,R,ugm-3,174,R,ugm-3
14-01-2005,05:00,93,R,ugm-3,80,R,ugm-3,222,R,ugm-3
14-01-2005,06:00,130,R,ugm-3,90,R,ugm-3,288,R,ugm-3
14-01-2005,07:00,143,R,ugm-3,86,R,ugm-3,304,R,ugm-3
14-01-2005,08:00,133,R,ugm-3,84,R,ugm-3,287,R,ugm-3
14-01-2005,09:00,233,R,ugm-3,96,R,ugm-3,451,R,ugm-3
14-01-2005,10:00,218,R,ugm-3,99,R,ugm-3,432,R,ugm-3
14-01-2005,11:00,145,R,ugm-3,76,R,ugm-3,298,R,ugm-3
14-01-2005,12:00,125,R,ugm-3,84,R,ugm-3,275,R,ugm-3
14-01-2005,13:00,75,R,ugm-3,65,R,ugm-3,180,R,ugm-3
14-01-2005,14:00,76,R,ugm-3,69,R,ugm-3,185,R,ugm-3
14-01-2005,15:00,71,R,ugm-3,69,R,ugm-3,178,R,ugm-3
14-01-2005,16:00,79,R,ugm-3,73,R,ugm-3,193,R,ugm-3
14-01-2005,17:00,96,R,ugm-3,80,R,ugm-3,227,R,ugm-3
14-01-2005,18:00,114,R,ugm-3,84,R,ugm-3,258,R,ugm-3
14-01-2005,19:00,83,R,ugm-3,73,R,ugm-3,199,R,ugm-3
14-01-2005,20:00,60,R,ugm-3,71,R,ugm-3,162,R,ugm-3
14-01-2005,21:00,51,R,ugm-3,65,R,ugm-3,143,R,ugm-3
14-01-2005,22:00,33,R,ugm-3,55,R,ugm-3,105,R,ugm-3
14-01-2005,23:00,33,R,ugm-3,59,R,ugm-3,109,R,ugm-3
14-01-2005,24:00,38,R,ugm-3,61,R,ugm-3,118,R,ugm-3
15-01-2005,01:00,19,R,ugm-3,57,R,ugm-3,86,R,ugm-3
15-01-2005,02:00,16,R,ugm-3,61,R,ugm-3,86,R,ugm-3
15-01-2005,03:00,15,R,ugm-3,53,R,ugm-3,76,R,ugm-3
15-01-2005,04:00,8,R,ugm-3,50,R,ugm-3,61,R,ugm-3
15-01-2005,05:00,8,R,ugm-3,52,R,ugm-3,63,R,ugm-3
15-01-2005,06:00,8,R,ugm-3,52,R,ugm-3,63,R,ugm-3
15-01-2005,07:00,11,R,ugm-3,50,R,ugm-3,67,R,ugm-3
15-01-2005,08:00,28,R,ugm-3,48,R,ugm-3,90,R,ugm-3
15-01-2005,09:00,60,R,ugm-3,50,R,ugm-3,141,R,ugm-3
15-01-2005,10:00,73,R,ugm-3,50,R,ugm-3,160,R,ugm-3
15-01-2005,11:00,74,R,ugm-3,46,R,ugm-3,159,R,ugm-3
15-01-2005,12:00,75,R,ugm-3,46,R,ugm-3,160,R,ugm-3
15-01-2005,13:00,109,R,ugm-3,52,R,ugm-3,218,R,ugm-3
15-01-2005,14:00,95,R,ugm-3,48,R,ugm-3,193,R,ugm-3
15-01-2005,15:00,89,R,ugm-3,46,R,ugm-3,181,R,ugm-3
15-01-2005,16:00,99,R,ugm-3,59,R,ugm-3,210,R,ugm-3
15-01-2005,17:00,105,R,ugm-3,61,R,ugm-3,222,R,ugm-3
15-01-2005,18:00,101,R,ugm-3,61,R,ugm-3,216,R,ugm-3
15-01-2005,19:00,106,R,ugm-3,67,R,ugm-3,229,R,ugm-3
15-01-2005,20:00,81,R,ugm-3,63,R,ugm-3,187,R,ugm-3
15-01-2005,21:00,55,R,ugm-3,53,R,ugm-3,138,R,ugm-3
15-01-2005,22:00,41,R,ugm-3,52,R,ugm-3,115,R,ugm-3
15-01-2005,23:00,38,R,ugm-3,50,R,ugm-3,107,R,ugm-3
15-01-2005,24:00,41,R,ugm-3,50,R,ugm-3,113,R,ugm-3
16-01-2005,01:00,21,R,ugm-3,42,R,ugm-3,74,R,ugm-3
16-01-2005,02:00,10,R,ugm-3,42,R,ugm-3,57,R,ugm-3
16-01-2005,03:00,13,R,ugm-3,38,R,ugm-3,57,R,ugm-3
16-01-2005,04:00,8,R,ugm-3,32,R,ugm-3,44,R,ugm-3
16-01-2005,05:00,3,R,ugm-3,32,R,ugm-3,36,R,ugm-3
16-01-2005,06:00,3,R,ugm-3,40,R,ugm-3,44,R,ugm-3
16-01-2005,07:00,4,R,ugm-3,42,R,ugm-3,48,R,ugm-3
16-01-2005,08:00,19,R,ugm-3,52,R,ugm-3,80,R,ugm-3
16-01-2005,09:00,21,R,ugm-3,48,R,ugm-3,80,R,ugm-3
16-01-2005,10:00,23,R,ugm-3,42,R,ugm-3,76,R,ugm-3
16-01-2005,11:00,41,R,ugm-3,44,R,ugm-3,107,R,ugm-3
16-01-2005,12:00,46,R,ugm-3,50,R,ugm-3,120,R,ugm-3
16-01-2005,13:00,45,R,ugm-3,38,R,ugm-3,107,R,ugm-3
16-01-2005,14:00,45,R,ugm-3,38,R,ugm-3,107,R,ugm-3
16-01-2005,15:00,38,R,ugm-3,42,R,ugm-3,99,R,ugm-3
16-01-2005,16:00,28,R,ugm-3,38,R,ugm-3,80,R,ugm-3
16-01-2005,17:00,53,R,ugm-3,57,R,ugm-3,138,R,ugm-3
16-01-2005,18:00,40,R,ugm-3,50,R,ugm-3,111,R,ugm-3
16-01-2005,19:00,21,R,ugm-3,38,R,ugm-3,71,R,ugm-3
16-01-2005,20:00,16,R,ugm-3,31,R,ugm-3,55,R,ugm-3
16-01-2005,21:00,16,R,ugm-3,34,R,ugm-3,59,R,ugm-3
16-01-2005,22:00,20,R,ugm-3,38,R,ugm-3,69,R,ugm-3
16-01-2005,23:00,15,R,ugm-3,32,R,ugm-3,55,R,ugm-3
16-01-2005,24:00,11,R,ugm-3,38,R,ugm-3,55,R,ugm-3
17-01-2005,01:00,3,R,ugm-3,21,R,ugm-3,25,R,ugm-3
17-01-2005,02:00,1,R,ugm-3,21,R,ugm-3,23,R,ugm-3
17-01-2005,03:00,3,R,ugm-3,38,R,ugm-3,42,R,ugm-3
17-01-2005,04:00,1,R,ugm-3,17,R,ugm-3,19,R,ugm-3
17-01-2005,05:00,1,R,ugm-3,11,R,ugm-3,13,R,ugm-3
17-01-2005,06:00,3,R,ugm-3,13,R,ugm-3,17,R,ugm-3
17-01-2005,07:00,10,R,ugm-3,21,R,ugm-3,36,R,ugm-3
17-01-2005,08:00,26,R,ugm-3,32,R,ugm-3,73,R,ugm-3
17-01-2005,09:00,64,R,ugm-3,50,R,ugm-3,147,R,ugm-3
17-01-2005,10:00,53,R,ugm-3,55,R,ugm-3,136,R,ugm-3
17-01-2005,11:00,40,R,ugm-3,40,R,ugm-3,101,R,ugm-3
17-01-2005,12:00,49,R,ugm-3,48,R,ugm-3,122,R,ugm-3
17-01-2005,13:00,,,,,,,,,
17-01-2005,14:00,44,R,ugm-3,46,R,ugm-3,113,R,ugm-3
17-01-2005,15:00,51,R,ugm-3,50,R,ugm-3,128,R,ugm-3
17-01-2005,16:00,65,R,ugm-3,57,R,ugm-3,157,R,ugm-3
17-01-2005,17:00,64,R,ugm-3,59,R,ugm-3,157,R,ugm-3
17-01-2005,18:00,55,R,ugm-3,59,R,ugm-3,143,R,ugm-3
17-01-2005,19:00,49,R,ugm-3,57,R,ugm-3,132,R,ugm-3
17-01-2005,20:00,23,R,ugm-3,40,R,ugm-3,74,R,ugm-3
17-01-2005,21:00,11,R,ugm-3,31,R,ugm-3,48,R,ugm-3
17-01-2005,22:00,13,R,ugm-3,27,R,ugm-3,46,R,ugm-3
17-01-2005,23:00,11,R,ugm-3,27,R,ugm-3,44,R,ugm-3
17-01-2005,24:00,5,R,ugm-3,15,R,ugm-3,23,R,ugm-3
18-01-2005,01:00,4,R,ugm-3,15,R,ugm-3,21,R,ugm-3
18-01-2005,02:00,3,R,ugm-3,19,R,ugm-3,23,R,ugm-3
18-01-2005,03:00,3,R,ugm-3,13,R,ugm-3,17,R,ugm-3
18-01-2005,04:00,0,R,ugm-3,11,R,ugm-3,11,R,ugm-3
18-01-2005,05:00,0,R,ugm-3,13,R,ugm-3,13,R,ugm-3
18-01-2005,06:00,5,R,ugm-3,21,R,ugm-3,29,R,ugm-3
18-01-2005,07:00,8,R,ugm-3,31,R,ugm-3,42,R,ugm-3
18-01-2005,08:00,38,R,ugm-3,55,R,ugm-3,113,R,ugm-3
18-01-2005,09:00,126,R,ugm-3,86,R,ugm-3,279,R,ugm-3
18-01-2005,10:00,116,R,ugm-3,76,R,ugm-3,254,R,ugm-3
18-01-2005,11:00,64,R,ugm-3,61,R,ugm-3,159,R,ugm-3
18-01-2005,12:00,50,R,ugm-3,50,R,ugm-3,126,R,ugm-3
18-01-2005,13:00,56,R,ugm-3,55,R,ugm-3,141,R,ugm-3
18-01-2005,14:00,61,R,ugm-3,55,R,ugm-3,149,R,ugm-3
18-01-2005,15:00,53,R,ugm-3,44,R,ugm-3,124,R,ugm-3
18-01-2005,16:00,45,R,ugm-3,44,R,ugm-3,113,R,ugm-3
18-01-2005,17:00,48,R,ugm-3,40,R,ugm-3,113,R,ugm-3
18-01-2005,18:00,50,R,ugm-3,52,R,ugm-3,128,R,ugm-3
18-01-2005,19:00,45,R,ugm-3,46,R,ugm-3,115,R,ugm-3
18-01-2005,20:00,18,R,ugm-3,27,R,ugm-3,53,R,ugm-3
18-01-2005,21:00,10,R,ugm-3,21,R,ugm-3,36,R,ugm-3
18-01-2005,22:00,10,R,ugm-3,17,R,ugm-3,32,R,ugm-3
18-01-2005,23:00,11,R,ugm-3,23,R,ugm-3,40,R,ugm-3
18-01-2005,24:00,8,R,ugm-3,21,R,ugm-3,32,R,ugm-3
19-01-2005,01:00,1,R,ugm-3,11,R,ugm-3,13,R,ugm-3
19-01-2005,02:00,1,R,ugm-3,11,R,ugm-3,13,R,ugm-3
19-01-2005,03:00,3,R,ugm-3,15,R,ugm-3,19,R,ugm-3
19-01-2005,04:00,0,R,ugm-3,13,R,ugm-3,13,R,ugm-3
19-01-2005,05:00,5,R,ugm-3,15,R,ugm-3,23,R,ugm-3
19-01-2005,06:00,5,R,ugm-3,25,R,ugm-3,32,R,ugm-3
19-01-2005,07:00,16,R,ugm-3,38,R,ugm-3,63,R,ugm-3
19-01-2005,08:00,63,R,ugm-3,69,R,ugm-3,164,R,ugm-3
19-01-2005,09:00,95,R,ugm-3,78,R,ugm-3,223,R,ugm-3
19-01-2005,10:00,85,R,ugm-3,71,R,ugm-3,201,R,ugm-3
19-01-2005,11:00,,,,,,,,,
19-01-2005,12:00,,,,,,,,,
19-01-2005,13:00,103,R,ugm-3,55,R,ugm-3,212,R,ugm-3
19-01-2005,14:00,55,R,ugm-3,53,R,ugm-3,138,R,ugm-3
19-01-2005,15:00,73,R,ugm-3,65,R,ugm-3,176,R,ugm-3
19-01-2005,16:00,78,R,ugm-3,61,R,ugm-3,180,R,ugm-3
19-01-2005,17:00,86,R,ugm-3,61,R,ugm-3,193,R,ugm-3
19-01-2005,18:00,81,R,ugm-3,67,R,ugm-3,191,R,ugm-3
19-01-2005,19:00,68,R,ugm-3,59,R,ugm-3,162,R,ugm-3
19-01-2005,20:00,31,R,ugm-3,44,R,ugm-3,92,R,ugm-3
19-01-2005,21:00,16,R,ugm-3,32,R,ugm-3,57,R,ugm-3
19-01-2005,22:00,19,R,ugm-3,31,R,ugm-3,59,R,ugm-3
19-01-2005,23:00,23,R,ugm-3,31,R,ugm-3,65,R,ugm-3
19-01-2005,24:00,15,R,ugm-3,29,R,ugm-3,52,R,ugm-3
20-01-2005,01:00,5,R,ugm-3,17,R,ugm-3,25,R,ugm-3
20-01-2005,02:00,21,R,ugm-3,25,R,ugm-3,57,R,ugm-3
20-01-2005,03:00,1,R,ugm-3,11,R,ugm-3,13,R,ugm-3
20-01-2005,04:00,1,R,ugm-3,10,R,ugm-3,11,R,ugm-3
20-01-2005,05:00,1,R,ugm-3,10,R,ugm-3,11,R,ugm-3
20-01-2005,06:00,1,R,ugm-3,11,R,ugm-3,13,R,ugm-3
20-01-2005,07:00,8,R,ugm-3,23,R,ugm-3,34,R,ugm-3
20-01-2005,08:00,28,R,ugm-3,36,R,ugm-3,78,R,ugm-3
20-01-2005,09:00,59,R,ugm-3,61,R,ugm-3,151,R,ugm-3
20-01-2005,10:00,86,R,ugm-3,67,R,ugm-3,199,R,ugm-3
20-01-2005,11:00,58,R,ugm-3,55,R,ugm-3,143,R,ugm-3
20-01-2005,12:00,54,R,ugm-3,48,R,ugm-3,130,R,ugm-3
20-01-2005,13:00,34,R,ugm-3,38,R,ugm-3,90,R,ugm-3
20-01-2005,14:00,36,R,ugm-3,42,R,ugm-3,97,R,ugm-3
20-01-2005,15:00,33,R,ugm-3,36,R,ugm-3,86,R,ugm-3
20-01-2005,16:00,31,R,ugm-3,42,R,ugm-3,90,R,ugm-3
20-01-2005,17:00,39,R,ugm-3,40,R,ugm-3,99,R,ugm-3
20-01-2005,18:00,30,R,ugm-3,32,R,ugm-3,78,R,ugm-3
20-01-2005,19:00,29,R,ugm-3,34,R,ugm-3,78,R,ugm-3
20-01-2005,20:00,24,R,ugm-3,34,R,ugm-3,71,R,ugm-3